GFSGL_250_spd_282.txt.gz
Wind_Speed
67 64 64 59 59 62 58 54 52 41 34 36 39 34 27 30 26 25 21 19 23 23 22 21 21 19 19 18 18 16 15 12 11 13 9 10 11 12 10 11 11 12 12
76 76 74 73 68 67 69 64 62 61 55 52 44 44 36 36 34 32 27 24 24 27 29 25 22 18 22 24 24 24 25 24 20 16 17 15 15 15 17 19 17 13 14
81 80 81 82 79 73 75 74 68 65 65 64 56 52 49 42 41 36 36 35 33 34 32 32 33 28 27 24 24 26 26 24 23 20 22 24 23 23 23 23 23 22 22
89 88 86 84 81 82 81 79 75 76 74 77 69 66 55 51 49 45 44 45 44 41 34 33 35 34 35 31 28 26 24 23 23 25 26 24 25 26 29 28 28 28 27
83 84 86 88 84 82 81 81 80 82 80 77 74 72 69 64 63 57 54 47 41 41 40 36 36 39 38 37 36 34 29 27 25 25 25 25 26 26 27 29 30 30 31
85 85 87 88 89 86 83 82 82 83 86 87 85 82 82 76 72 67 63 52 47 39 46 42 38 37 37 38 36 37 36 33 33 32 30 30 30 28 27 31 31 31 31
92 92 93 93 91 90 88 86 84 86 86 87 87 86 85 84 80 77 72 63 56 49 47 43 45 43 40 38 31 33 34 33 33 32 32 33 32 29 29 33 34 35 36
99 100 100 98 96 97 95 93 90 88 89 87 86 86 85 84 85 80 77 73 62 57 54 60 48 56 71 56 54 50 43 42 42 38 34 37 35 33 30 34 37 35 36
97 99 102 103 104 103 102 102 100 97 94 93 90 87 86 86 86 84 82 79 69 62 58 57 62 62 62 56 56 53 55 46 50 47 42 42 40 38 36 33 35 36 32
97 99 102 105 106 109 110 108 109 106 100 98 97 94 89 87 90 88 85 81 74 72 70 71 73 69 68 68 64 69 69 64 53 47 48 50 40 41 42 39 39 40 41
100 101 102 104 106 111 114 114 113 112 111 106 101 99 96 90 89 91 90 84 79 79 80 78 77 74 74 71 73 72 66 62 61 51 49 49 51 49 47 46 47 46 44
100 100 100 104 109 109 111 114 117 116 111 110 108 105 99 98 92 91 91 90 86 81 85 89 83 81 79 81 73 73 79 72 71 68 71 67 63 58 52 53 54 51 51
86 89 89 94 99 103 104 108 113 118 117 112 107 107 105 102 100 94 93 92 92 88 89 91 97 92 92 87 86 78 80 80 74 67 67 72 67 65 56 54 54 52 57
70 69 74 74 80 87 91 93 98 107 114 113 109 101 105 105 102 102 97 95 93 93 92 93 95 100 101 102 98 87 85 83 76 70 69 67 67 69 63 63 61 63 60
55 56 63 60 62 63 68 76 85 94 103 107 104 100 99 102 101 105 102 97 97 95 95 94 95 97 100 102 99 98 93 86 86 80 72 76 71 76 76 76 73 74 71
43 47 51 51 50 50 50 59 72 85 89 91 98 97 96 96 100 100 103 100 98 98 96 95 95 96 100 103 104 102 99 97 93 90 81 83 83 78 79 81 81 76 77
34 33 37 41 37 36 39 45 55 69 76 76 82 88 90 93 95 95 92 96 94 94 93 92 93 97 101 103 105 104 103 100 99 97 96 88 90 87 87 86 85 86 85
25 28 31 31 30 28 30 33 39 46 53 56 62 71 80 83 87 90 84 84 84 87 86 90 92 96 101 103 103 107 102 101 102 103 104 103 96 95 96 97 97 94 93
21 19 18 17 17 13 13 17 21 26 34 41 48 54 65 77 85 85 83 86 85 83 86 90 94 96 96 99 101 100 101 106 102 105 108 106 108 110 106 107 102 100 98
12 9 10 9 10 11 7 8 12 17 18 28 36 41 50 65 78 85 88 79 75 87 91 94 93 95 97 98 98 99 99 99 103 105 103 105 106 107 108 106 105 105 106
8 12 19 26 29 29 27 25 30 28 20 12 21 33 21 23 43 66 75 85 87 86 89 92 94 95 96 98 98 101 101 101 102 103 105 105 107 107 106 108 109 106 110
8 20 23 26 30 33 30 26 22 27 23 23 24 39 57 52 53 51 59 71 77 80 83 86 92 97 98 97 96 98 99 102 102 102 105 106 103 104 107 108 108 109 109
13 26 26 28 30 33 32 24 30 32 33 35 39 48 44 46 43 47 67 71 71 71 77 85 87 91 92 95 94 93 94 96 99 103 106 107 108 108 106 104 105 107 109
10 17 28 26 30 30 32 31 29 32 41 48 51 50 46 54 56 49 45 59 69 73 76 79 85 87 90 93 96 96 96 96 95 96 97 100 105 109 111 112 112 112 110
16 16 17 26 35 32 33 35 33 32 36 46 52 50 53 54 57 59 62 61 65 70 74 80 79 83 84 89 91 93 97 99 99 99 102 101 102 103 107 108 111 115 116
13 19 25 26 29 36 40 41 42 43 46 47 52 55 53 51 57 61 63 66 66 67 69 73 75 79 83 85 86 86 89 94 95 97 99 100 102 104 102 103 104 107 109

GFSGL_250_spd_285.txt.gz
Wind_Speed
64 63 62 62 59 58 55 53 48 41 41 41 40 36 37 31 27 28 31 29 27 25 24 24 23 22 22 23 21 19 18 19 16 15 18 14 13 13 13 13 12 12 12
70 67 70 68 66 66 64 62 58 55 54 52 51 51 47 43 43 38 34 36 35 32 28 21 24 23 24 23 25 25 26 26 27 23 22 23 21 19 17 18 20 19 18
80 77 73 74 75 74 76 75 73 68 70 72 68 66 67 64 58 56 50 46 42 40 35 25 27 26 29 27 26 28 29 28 29 29 24 32 30 27 25 22 23 24 25
77 78 80 84 85 86 88 88 82 81 80 80 78 73 74 74 71 66 60 58 49 45 42 38 32 30 30 31 30 30 31 31 30 30 29 27 33 30 31 28 29 29 31
90 90 91 94 95 91 88 87 86 91 88 87 88 85 82 75 81 79 76 72 61 52 48 44 36 36 33 23 26 29 32 34 37 35 32 27 26 25 30 28 29 29 31
89 92 95 96 97 99 101 100 99 94 90 88 91 92 88 87 83 85 82 80 68 65 57 51 44 39 42 44 29 29 29 33 36 42 41 36 32 24 23 28 33 33 33
93 94 95 97 97 98 98 99 99 96 93 91 89 87 88 87 88 92 91 87 77 70 71 65 57 49 50 52 49 48 51 42 38 42 40 41 36 30 30 31 34 37 36
96 97 99 100 101 102 102 103 102 102 101 97 94 90 88 90 90 91 94 90 86 81 73 73 67 64 61 57 45 43 39 49 48 40 34 37 36 37 34 31 31 37 37
100 101 102 102 102 104 105 107 109 109 107 106 101 97 95 90 92 93 94 92 92 89 88 75 74 75 73 68 57 58 42 46 57 59 51 53 47 45 38 42 39 35 37
88 92 96 101 104 105 110 113 114 114 113 112 110 107 102 97 98 97 96 95 91 95 93 83 79 81 84 75 67 64 62 56 49 50 49 55 56 53 47 46 42 42 45
99 99 100 100 102 107 111 115 117 119 119 118 116 114 110 107 105 103 101 98 94 95 93 90 85 86 84 83 78 72 72 68 66 63 64 60 62 59 59 55 52 47 50
98 98 101 105 110 114 112 114 114 115 119 121 123 121 117 113 112 109 106 104 100 95 95 95 91 86 86 83 81 83 74 74 63 62 69 70 70 69 59 61 58 52 53
89 90 90 94 95 91 94 100 101 105 112 116 122 121 122 122 118 112 110 108 103 99 97 97 96 91 86 83 85 87 83 82 78 73 73 76 75 75 72 65 66 63 66
74 72 74 74 75 79 81 84 87 90 92 100 111 116 121 122 122 118 110 111 110 103 99 99 97 95 89 85 86 93 92 89 84 84 82 83 76 85 82 78 73 76 73
58 57 56 58 60 61 64 67 67 74 79 85 86 94 105 115 119 120 115 110 110 111 106 100 98 94 92 92 89 90 98 98 96 92 90 91 87 88 90 84 80 78 79
42 44 42 45 50 51 51 54 51 55 64 68 73 76 80 94 105 112 114 109 107 106 106 103 98 96 93 93 93 93 94 98 104 103 100 99 95 92 93 93 87 84 81
33 31 32 33 36 34 36 35 36 41 44 47 54 59 66 70 80 91 100 103 100 102 99 95 94 93 89 92 90 91 94 98 102 104 107 107 103 104 100 95 93 94 88
19 20 20 19 17 17 22 25 20 24 27 30 38 43 48 52 61 69 75 81 88 95 94 89 88 89 89 88 89 89 93 98 101 101 104 106 109 112 111 111 108 102 98
16 9 7 4 2 2 3 8 9 7 13 13 14 18 22 27 35 44 50 60 79 87 91 84 88 84 85 88 90 94 97 95 96 99 102 103 104 105 105 106 103 103 101
2 9 17 17 24 22 24 31 30 32 30 18 9 10 13 18 24 32 41 53 68 83 89 83 80 84 84 88 91 92 97 96 94 92 93 96 103 103 103 104 103 100 101
9 17 18 28 25 28 29 35 36 34 34 35 33 27 25 26 11 18 28 37 49 71 79 91 82 87 83 85 87 89 90 91 94 94 94 96 95 100 98 100 101 100 102
14 16 20 22 26 22 23 24 23 25 32 36 40 34 31 29 29 28 22 34 42 49 63 77 85 86 81 83 86 90 94 95 95 94 92 96 96 97 98 98 97 97 98
14 20 19 16 14 16 8 10 20 22 21 20 29 36 31 34 28 32 37 38 44 49 57 63 70 77 85 85 85 89 94 97 97 97 97 98 98 98 97 101 102 103 102
17 19 20 21 20 12 17 11 18 17 25 27 25 35 35 33 32 34 37 41 44 55 61 59 60 69 80 86 91 91 91 92 94 98 100 100 102 102 102 101 101 101 99
17 23 26 27 27 26 21 20 19 23 26 35 34 35 37 37 39 38 40 46 52 55 61 59 65 71 74 78 83 85 87 88 90 92 95 96 96 97 97 97 98 99 99
21 22 28 35 33 35 34 33 31 30 30 33 40 41 44 43 43 48 44 51 57 58 60 64 65 66 69 72 76 78 83 84 87 89 91 93 95 95 96 96 98 99 98

GFSGL_250_spd_288.txt.gz
Wind_Speed
56 63 65 61 60 57 58 56 56 52 53 55 48 47 45 45 41 35 30 30 30 29 30 31 28 25 26 27 24 23 22 20 20 20 21 18 16 16 18 17 15 14 14
63 67 62 64 68 66 66 64 66 63 61 63 58 57 56 51 53 45 40 37 33 32 34 33 33 27 32 30 30 30 30 28 28 29 27 30 26 23 20 19 20 20 19
56 68 74 76 76 78 76 76 76 75 73 71 68 65 60 60 62 58 51 47 45 41 40 37 40 37 35 32 32 32 33 36 37 38 36 35 37 36 30 25 23 23 23
70 75 76 79 84 83 82 83 84 83 85 82 79 77 75 70 68 65 63 58 55 56 53 53 50 46 44 38 37 36 37 39 38 37 35 32 32 35 35 33 33 30 31
78 81 83 86 87 86 88 89 88 90 84 91 91 85 83 82 80 79 78 74 77 72 71 68 63 57 50 51 43 44 42 42 43 41 40 37 33 31 31 35 34 34 36
87 87 88 88 91 93 94 96 95 94 93 89 95 96 93 91 92 91 92 91 79 83 76 76 68 67 65 58 55 49 43 44 46 43 39 39 41 36 29 29 33 32 32
89 90 90 91 92 95 96 100 105 106 105 102 99 101 101 100 95 98 100 98 92 84 91 84 79 74 70 67 65 60 54 50 42 44 42 41 42 43 39 37 35 36 37
92 93 93 94 95 97 100 103 105 105 106 107 109 111 111 112 109 105 100 100 96 87 87 95 90 87 82 71 71 63 61 58 52 50 53 51 56 48 42 42 42 42 42
88 89 90 92 94 96 100 105 107 109 111 112 112 111 110 108 108 106 105 104 99 91 93 91 90 90 87 91 76 74 70 67 60 54 58 50 48 48 44 43 41 38 40
88 89 88 86 88 90 94 98 104 113 114 117 117 117 116 115 114 112 110 108 103 98 94 92 89 89 88 91 81 79 79 82 72 63 59 54 48 55 56 53 55 47 46
97 97 97 100 101 103 107 109 110 111 110 116 120 122 123 121 118 118 118 114 109 103 97 95 93 92 91 90 88 75 80 92 84 77 70 66 58 56 53 52 56 54 52
97 96 98 101 103 106 110 112 115 114 113 114 116 117 119 122 125 125 123 122 118 109 98 99 99 98 94 92 87 84 80 85 88 84 80 75 70 67 69 62 58 57 56
98 97 99 99 98 98 95 97 98 100 105 109 113 112 114 114 115 118 120 123 124 116 104 103 105 101 99 96 90 88 91 85 82 85 86 83 78 74 74 73 72 70 63
78 79 79 80 81 79 78 79 81 85 87 89 93 94 94 97 102 107 110 115 118 118 113 105 104 106 101 98 95 91 89 90 85 85 85 87 90 87 80 79 79 82 79
66 66 66 65 65 64 64 65 64 65 68 72 76 79 82 84 87 93 94 97 105 113 111 108 103 102 104 101 97 95 94 91 90 88 88 90 92 94 94 89 86 83 83
46 47 44 45 45 45 44 46 48 50 54 57 59 64 67 67 70 74 82 85 90 95 99 102 100 100 99 100 99 96 96 93 91 91 90 90 92 94 94 99 96 94 88
32 32 32 32 29 28 29 33 37 37 38 39 44 49 50 52 53 57 63 67 70 77 83 93 96 93 96 97 94 93 94 93 91 91 93 94 91 95 98 100 103 103 101
19 18 17 15 13 14 16 16 11 13 17 24 30 31 33 33 36 39 43 47 52 60 70 78 84 87 88 89 90 89 90 91 91 90 89 90 96 99 99 100 103 104 104
15 10 3 4 8 8 12 13 10 17 21 17 14 14 15 16 16 21 27 30 34 39 48 59 66 74 74 79 80 79 83 79 84 90 92 92 92 90 96 99 101 101 103
9 9 10 13 15 16 14 12 13 20 25 29 36 35 32 19 12 10 12 5 8 15 25 36 49 56 56 63 75 75 73 77 81 83 85 85 90 93 95 96 98 100 100
7 15 15 13 14 13 14 7 9 14 11 19 30 31 29 29 34 33 33 25 20 15 6 15 35 53 62 87 89 78 60 53 80 78 84 87 92 94 94 95 96 96 98
5 20 22 16 19 21 10 10 6 15 11 16 19 22 25 23 20 27 28 18 17 10 9 7 18 31 45 66 68 70 74 83 79 79 86 86 87 95 98 99 97 93 95
15 15 27 24 26 18 12 14 13 14 12 13 17 15 10 15 25 22 22 19 19 28 30 34 40 44 53 55 61 73 81 81 84 87 88 89 87 84 91 97 99 101 100
24 22 27 27 30 23 23 22 19 17 17 16 14 15 13 20 19 18 23 26 33 35 43 50 52 51 51 60 67 70 81 88 89 90 90 89 95 99 102 100 96 98 101
29 30 28 31 33 35 30 26 27 29 25 22 23 22 19 20 29 28 29 38 37 48 50 50 53 64 71 72 69 70 70 81 91 95 98 97 97 96 97 96 97 97 97
25 30 33 34 33 40 42 41 38 35 37 39 34 37 36 34 34 37 42 41 45 50 53 55 56 61 63 65 70 74 76 78 81 85 90 93 97 100 102 103 101 99 97

GFSGL_250_spd_291.txt.gz
Wind_Speed
57 57 57 55 48 54 61 57 54 54 59 58 52 54 54 53 50 45 44 41 37 34 37 37 39 35 31 32 30 28 26 25 25 25 26 22 21 21 21 22 22 23 25
58 56 60 64 70 68 65 68 66 65 67 65 61 61 61 60 61 59 56 49 48 45 41 38 41 39 40 38 36 35 34 31 31 34 31 33 27 25 24 23 22 23 23
65 64 66 68 74 73 75 77 79 77 75 77 76 71 71 70 66 68 67 61 56 56 48 45 45 41 44 43 41 42 40 39 38 39 41 37 38 37 31 28 25 24 27
69 70 71 71 72 76 78 82 87 87 86 86 86 84 80 77 77 73 76 72 66 65 60 56 52 48 50 44 45 45 45 45 44 44 44 42 38 40 42 38 36 33 33
70 76 76 75 81 75 81 84 86 88 87 89 91 91 89 87 82 85 79 82 78 74 71 68 64 59 59 53 49 49 50 48 48 49 49 47 44 38 34 34 35 36 35
72 81 77 81 85 89 85 87 91 90 90 91 98 101 96 93 91 91 91 84 90 84 80 79 79 68 68 65 61 60 57 54 55 52 53 54 51 45 39 36 36 36 37
91 90 91 93 93 92 91 90 97 104 100 99 97 100 102 103 102 100 94 92 90 94 88 85 80 85 78 74 71 72 71 67 62 59 56 57 57 53 42 40 37 38 40
88 89 88 89 90 91 91 93 96 103 108 111 114 112 111 112 114 112 107 101 96 94 102 96 93 92 91 92 89 87 81 77 74 67 63 64 59 54 49 46 42 38 41
81 82 84 86 86 86 89 90 92 96 102 110 113 112 112 112 114 116 118 117 110 106 102 101 109 96 102 97 98 98 91 84 84 77 72 68 70 64 54 52 53 53 48
89 90 91 93 93 93 92 92 93 97 98 104 108 108 111 115 118 119 120 119 117 115 113 112 107 106 111 109 101 91 88 94 94 88 81 77 74 73 66 60 62 58 59
93 93 94 96 98 98 99 99 101 103 105 109 111 110 112 113 115 118 121 123 120 119 116 114 113 114 110 111 106 93 85 93 94 92 88 82 81 79 74 67 66 64 60
95 97 99 101 105 106 106 107 107 107 106 107 108 107 110 113 117 117 115 116 116 118 118 119 116 116 113 112 111 99 95 95 91 89 85 86 86 87 88 81 71 71 64
98 100 102 103 102 98 101 100 99 98 99 98 97 98 100 103 104 108 109 110 112 113 113 113 114 116 115 115 109 103 100 99 94 90 86 86 88 94 94 87 88 80 75
97 96 98 96 91 87 84 81 80 79 80 81 83 83 85 89 92 92 92 93 96 99 100 102 109 111 108 108 109 106 102 100 98 95 91 89 91 90 92 93 93 91 82
82 79 78 77 73 68 64 61 60 61 60 60 61 64 67 71 75 78 79 79 82 85 88 88 94 100 102 103 102 103 104 104 99 97 96 95 92 92 90 93 95 98 94
64 61 59 54 47 43 41 42 41 33 33 37 42 46 51 54 57 60 61 61 64 68 71 75 81 87 93 100 102 99 99 104 101 99 97 96 94 93 91 89 89 88 89
41 35 34 31 28 25 22 19 17 16 12 14 21 27 31 36 41 43 43 43 45 50 55 60 68 73 80 87 94 97 94 98 102 100 97 96 94 95 91 89 90 91 92
17 17 17 16 12 9 9 10 6 4 8 13 18 18 19 20 21 24 29 31 31 34 41 46 52 56 63 72 80 85 88 90 94 95 95 92 92 90 92 92 91 93 95
7 15 14 14 13 9 7 9 8 6 2 4 7 9 17 22 33 33 20 18 17 17 19 28 38 43 48 56 62 69 72 78 80 81 80 86 86 85 89 90 93 94 95
9 14 16 16 16 15 12 14 13 11 11 4 3 13 17 23 20 22 34 21 7 5 3 12 24 32 39 43 49 55 60 67 72 72 73 76 80 82 82 86 89 92 94
15 14 17 22 17 20 19 21 18 16 16 8 4 9 9 13 18 17 20 28 35 33 26 20 13 12 17 25 32 38 44 47 48 56 59 59 67 71 77 78 83 86 88
24 21 20 21 29 22 25 30 25 23 20 16 13 10 8 5 10 15 19 20 23 30 23 25 31 27 18 13 19 32 32 26 34 47 52 65 68 69 70 69 74 80 81
30 25 25 28 28 34 30 33 32 30 24 27 21 13 16 15 12 7 14 15 15 17 23 17 13 19 27 27 27 42 43 46 54 57 62 68 68 65 64 70 77 79 79
27 31 31 30 33 37 37 40 39 38 34 29 29 21 16 22 19 11 13 14 18 14 16 15 20 21 28 34 37 44 48 61 64 65 70 70 68 75 78 83 76 79 81
17 22 27 29 31 34 38 45 45 47 42 39 38 34 31 26 28 26 24 25 24 23 28 32 37 39 40 42 42 46 54 60 64 67 63 65 67 71 77 80 79 78 80
19 19 19 20 22 28 35 41 42 48 52 47 46 49 43 38 37 33 31 36 34 35 35 42 46 51 52 54 57 58 60 63 64 63 74 86 88 89 94 92 98 99 96

GFSGL_250_spd_297.txt.gz
Wind_Speed
59 63 65 68 68 65 66 71 72 65 65 68 66 64 68 67 69 65 63 62 59 56 54 53 53 48 47 41 41 43 40 38 37 40 37 32 31 29 24 22 23 21 20
70 71 70 71 74 74 74 75 76 73 71 71 70 64 70 71 74 74 73 66 67 67 63 60 60 58 57 54 47 48 47 44 41 43 40 38 35 34 31 27 27 26 24
77 79 80 82 80 79 79 78 79 79 78 71 71 71 69 77 77 80 75 76 76 71 72 69 67 65 65 64 61 59 55 52 51 48 51 45 44 40 38 38 34 31 29
78 82 82 81 79 79 80 79 79 78 76 75 74 76 74 76 84 84 84 84 82 79 78 79 75 74 72 73 72 68 65 60 58 55 54 56 52 50 45 43 41 39 38
87 87 85 85 82 78 74 69 72 77 75 79 84 81 76 74 75 90 89 87 87 89 87 89 83 84 79 82 79 75 74 71 65 62 60 61 60 60 51 49 47 43 43
87 85 84 84 84 85 88 88 85 85 87 88 87 85 85 81 83 81 82 84 94 98 93 93 92 90 92 89 87 84 81 78 76 75 68 65 64 66 63 57 54 52 49
81 80 80 79 79 80 82 86 88 90 92 91 93 94 94 91 90 92 87 87 87 91 94 99 106 104 98 99 102 98 90 90 87 83 79 75 72 72 70 65 58 55 53
85 84 83 81 80 80 81 82 82 83 86 91 94 101 104 102 101 100 101 98 92 92 95 97 99 102 106 111 111 106 105 103 97 95 89 86 80 80 77 71 67 63 58
88 89 88 87 85 85 84 83 84 84 85 86 89 92 99 112 109 112 111 105 106 106 105 105 109 108 114 113 111 110 108 106 107 102 97 93 92 88 86 81 72 69 64
93 91 90 89 88 86 87 85 84 84 83 85 87 91 93 95 99 100 102 101 103 106 107 110 115 118 122 124 121 118 110 111 110 108 104 100 100 97 95 89 84 75 72
93 92 91 89 87 87 88 89 89 89 89 90 91 94 97 99 100 101 105 109 111 108 114 117 122 126 127 125 122 116 115 117 112 111 111 106 104 102 101 102 95 87 83
92 90 91 92 90 88 88 91 91 93 95 95 97 98 100 101 104 103 101 102 100 103 106 108 110 116 122 127 129 125 121 115 113 112 114 112 109 106 107 107 106 99 93
93 91 91 90 92 95 95 95 96 97 95 91 89 90 93 91 88 87 87 83 84 85 86 83 86 92 97 102 108 114 119 120 115 109 112 117 116 113 111 113 112 110 104
93 93 93 92 91 88 86 86 89 91 90 89 87 87 87 80 74 71 68 64 64 65 62 61 61 67 77 84 89 94 99 104 107 112 112 111 118 118 114 114 115 116 113
85 85 83 81 81 80 84 86 89 89 88 87 80 70 62 55 50 45 45 45 49 53 49 52 54 56 61 66 73 77 80 86 92 99 105 111 110 111 115 115 114 116 116
75 77 78 80 80 81 83 83 77 72 66 58 50 44 35 35 35 35 31 34 40 44 50 56 57 56 54 52 59 64 65 70 77 85 93 101 106 106 107 112 116 117 116
48 53 56 59 59 60 60 59 56 49 39 31 28 26 31 30 30 30 34 37 38 43 50 51 52 58 54 46 44 47 53 58 62 71 81 88 96 101 103 103 108 113 116
14 16 19 22 24 27 28 29 28 31 30 21 27 27 29 34 32 32 34 37 37 37 40 40 46 51 46 38 35 34 37 43 52 59 68 77 84 89 95 97 101 105 109
4 8 11 15 17 18 22 25 24 24 28 28 27 33 33 35 36 37 36 34 36 38 35 32 34 36 25 21 21 25 27 31 39 49 57 64 75 81 88 92 95 98 99
11 12 15 17 21 24 21 24 25 26 26 31 35 35 40 41 42 40 37 33 35 35 34 25 25 32 17 16 17 15 13 15 25 35 44 56 62 71 79 82 86 92 96
23 25 27 27 28 26 27 29 32 33 36 36 37 39 40 43 43 44 46 39 36 35 28 28 22 19 12 12 11 12 9 6 10 20 28 39 48 54 60 68 75 79 85
16 19 23 28 31 32 35 39 41 40 44 45 45 46 46 47 45 44 45 46 40 39 36 27 21 14 10 8 9 3 2 5 6 16 27 36 39 43 49 51 52 55 71
22 21 20 18 17 17 19 23 27 32 40 45 47 50 52 54 56 51 48 45 47 44 42 39 29 17 11 12 5 6 11 13 21 22 24 30 32 37 42 40 49 57 58
23 24 25 25 26 26 27 28 28 27 26 27 30 35 41 46 52 57 58 56 52 47 46 47 41 31 24 19 19 14 15 15 21 28 26 26 30 32 40 44 52 57 62
29 29 28 29 30 32 33 36 34 33 34 33 34 32 36 41 42 44 49 57 56 52 55 52 51 45 38 33 29 27 26 27 24 28 29 30 34 34 38 48 53 57 60
30 30 30 30 31 32 36 36 36 38 38 38 39 40 39 39 42 43 47 49 52 55 59 60 55 58 52 49 42 39 37 36 36 34 33 31 38 44 48 57 65 63 59